Location: Melbourne
(37.8170°S, 144.9670°E)
Time: 20:13:34
(UTC+11:00)

Transit 2A - All Passes

Search period start: 06 February 2016 00:00
Search period end: 16 February 2016 00:00
Orbit: 600 x 960 km, 66.7° (Epoch: 05 February)

Date Brightness Start Highest point End Pass type
(mag) Time Alt. Az. Time Alt. Az. Time Alt. Az.
06 Feb - 00:37:37 10° W 00:42:01 19° SW 00:46:21 10° S visible
06 Feb - 07:41:51 10° SSW 07:47:09 47° SE 07:51:53 10° NE daylight
06 Feb - 09:26:10 10° WSW 09:29:50 19° WNW 09:33:16 10° NNW daylight
06 Feb - 22:17:51 10° NNW 22:24:05 62° ENE 22:30:21 10° SE visible
07 Feb - 00:02:38 10° WNW 00:07:48 25° SW 00:12:54 10° S visible
07 Feb - 07:08:08 10° S 07:13:04 32° SE 07:17:32 10° ENE daylight
07 Feb - 08:51:36 10° SW 08:56:10 30° WNW 09:00:19 10° NNW daylight
07 Feb - 21:44:18 10° N 21:50:16 44° ENE 21:56:13 10° SE visible
07 Feb - 23:27:56 10° WNW 23:33:39 34° SW 23:39:17 10° S visible
08 Feb - 06:34:33 10° S 06:38:55 23° SE 06:42:56 10° E daylight
08 Feb - 08:17:19 10° SW 08:22:25 45° WNW 08:26:59 10° N daylight
08 Feb - 21:11:03 10° NNE 21:16:29 31° ENE 21:21:55 10° SE visible
08 Feb - 22:53:28 10° NW 22:59:34 46° SW 23:05:36 10° SSE visible
09 Feb - 06:01:09 10° S 06:04:42 17° SE 06:08:00 10° E visible
09 Feb - 07:43:14 10° SSW 07:48:36 71° WNW 07:53:22 10° NNE daylight
09 Feb - 20:38:09 10° NNE 20:42:46 21° ENE 20:47:22 10° ESE daylight
09 Feb - 22:19:13 10° NW 22:25:33 63° WSW 22:31:49 10° SSE visible
10 Feb - 00:07:09 10° WSW 00:10:01 13° SW 00:12:50 10° SSW visible
10 Feb - 05:28:08 10° SSE 05:30:23 12° SE 05:32:34 10° ESE visible
10 Feb - 07:09:17 10° SSW 07:14:43 77° ESE 07:19:31 10° NNE daylight
10 Feb - 08:55:59 10° W 08:56:55 10° W 08:57:49 10° WNW daylight
10 Feb - 20:05:53 10° NE 20:09:06 14° ENE 20:12:18 10° ESE daylight
10 Feb - 21:45:12 10° NNW 21:51:36 87° WSW 21:57:55 10° SSE visible
10 Feb - 23:31:35 10° W 23:35:41 18° SW 23:39:45 10° S visible
11 Feb - 06:35:26 10° SSW 06:40:44 51° ESE 06:45:27 10° NE daylight
11 Feb - 08:20:03 10° WSW 08:23:18 17° WNW 08:26:23 10° NW daylight
11 Feb - 21:11:23 10° NNW 21:17:41 68° ENE 21:23:57 10° SSE visible
11 Feb - 22:56:30 10° W 23:01:28 23° SW 23:06:21 10° S visible
12 Feb - 06:01:41 10° SSW 06:06:40 35° SE 06:11:09 10° ENE visible
12 Feb - 07:45:21 10° SW 07:49:39 26° WNW 07:53:35 10° NNW daylight
12 Feb - 20:37:47 10° N 20:43:51 48° ENE 20:49:53 10° SE visible
12 Feb - 22:21:44 10° WNW 22:27:18 31° SW 22:32:48 10° S visible
13 Feb - 05:28:05 10° S 05:32:32 25° SE 05:36:37 10° ENE visible
13 Feb - 07:11:01 10° SW 07:15:55 40° WNW 07:20:21 10° N daylight
13 Feb - 20:04:26 10° N 20:10:03 34° ENE 20:15:38 10° SE daylight
13 Feb - 21:47:12 10° NW 21:53:13 42° SW 21:59:07 10° SSE visible
14 Feb - 04:54:38 10° S 04:58:19 18° SE 05:01:46 10° E visible
14 Feb - 06:36:52 10° SW 06:42:07 62° WNW 06:46:48 10° NNE daylight
14 Feb - 19:31:26 10° NNE 19:36:18 24° ENE 19:41:10 10° SE daylight
14 Feb - 21:12:54 10° NW 21:19:10 58° WSW 21:25:21 10° SSE visible
14 Feb - 23:01:23 10° WSW 23:03:43 12° SW 23:06:01 10° SSW visible
15 Feb - 04:21:30 10° SSE 04:24:03 13° SE 04:26:29 10° ESE visible
15 Feb - 06:02:53 10° SSW 06:08:14 86° ESE 06:13:00 10° NNE visible
15 Feb - 18:58:56 10° NE 19:02:37 16° ENE 19:06:16 10° ESE daylight
15 Feb - 20:38:48 10° NNW 20:45:12 80° WSW 20:51:30 10° SSE visible
15 Feb - 22:25:36 10° W 22:29:23 16° SW 22:33:07 10° S visible
